Weather History for KANJ - February, 2014

Change the Weather History Date:

Tuesday, February 4, 2014

  Actual Average Record
Temperature  
Mean Temperature 13 °F 16 °F  
Max Temperature 21 °F 24 °F 46 °F (1991)
Min Temperature 4 °F 8 °F -25 °F (1891)
Degree Days  
Heating Degree Days 52 49  
Month to date heating degree days 217 198  
Since 1 July heating degree days 5446 4998  
Moisture  
Dew Point 4 °F    
Average Humidity 72    
Maximum Humidity 92    
Minimum Humidity 51    
Precipitation  
Precipitation T in 0.05 in 0.34 in (1936)
Month to date precipitation 0.05 0.21  
Year to date precipitation 2.64 2.40  
Snow  
Snow T in 0.80 in 10.40 in (1936)
Month to date snowfall 1.8 3.3  
Since 1 July snowfall 92.0 84.9  
Snow Depth 25.00 in    
Sea Level Pressure  
Sea Level Pressure 30.36 in    
Wind  
Wind Speed 3 mph (NW)    
Max Wind Speed 9 mph    
Max Gust Speed 13 mph    
Visibility 10 miles    
Events      
T = Trace of Precipitation, MM = Missing Value Source: NWS Daily Summary

Daily Weather History Graph

Daily Weather History Graph

Search for Another Location

Airport or City:

Trip Planner

Search our weather history database for the weather conditions in past years. The results will help you decide how hot, cold, wet, or windy it might be!

Date:

Astronomy

Feb. 04, 2014 Rise Set
Actual Time 7:57 AM EST 5:46 PM EST
Civil Twilight 7:25 AM EST 6:18 PM EST
Nautical Twilight 6:49 AM EST 6:54 PM EST
Astronomical Twilight 6:14 AM EST 7:29 PM EST
Moon 10:12 AM EST (2/4) No Moon Set
Length of Visible Light 10h 53m
Length of Day
9h 49m
Waxing Crescent, 29% of the Moon is Illuminated
Feb 4
Waxing Crescent
Feb 6
First Quarter
Feb 14
Full
Feb 22
Last Quarter
Mar 1
New

Hourly Weather History & Observations

Time (EST) Temp. Windchill Dew Point Humidity Pressure Visibility Wind Dir Wind Speed Gust Speed Precip Events Conditions
12:55 AM 10.9 °F - 5.0 °F 77% 30.28 in 10.0 mi Calm Calm - N/A   Mostly Cloudy
1:02 AM 10.9 °F - 5.0 °F 77% 30.24 in 10.0 mi Calm Calm - N/A   Scattered Clouds
1:55 AM 10.0 °F - 5.0 °F 80% 30.29 in 10.0 mi Calm Calm - N/A   Mostly Cloudy
2:55 AM 7.0 °F - 3.0 °F 84% 30.30 in 10.0 mi Calm Calm - N/A   Scattered Clouds
3:55 AM 7.0 °F - 1.9 °F 80% 30.31 in 10.0 mi Calm Calm - N/A   Scattered Clouds
4:19 AM 7.0 °F - 3.0 °F 84% 30.27 in 10.0 mi Calm Calm - N/A   Mostly Cloudy
4:55 AM 8.1 °F 1.4 °F 3.9 °F 83% 30.33 in 10.0 mi SSE 3.5 mph - N/A   Overcast
5:27 AM 9.0 °F - 5.0 °F 84% 30.30 in 10.0 mi Calm Calm - N/A   Overcast
5:39 AM 7.0 °F - 3.9 °F 87% 30.30 in 10.0 mi Calm Calm - N/A   Overcast
5:55 AM 8.1 °F - 3.9 °F 83% 30.34 in 10.0 mi Calm Calm - N/A   Overcast
6:10 AM 9.0 °F - 3.9 °F 80% 30.30 in 10.0 mi Calm Calm - N/A   Overcast
6:42 AM 8.1 °F - 3.9 °F 83% 30.31 in 9.0 mi Calm Calm - N/A   Overcast
6:55 AM 9.0 °F 2.4 °F 5.0 °F 84% 30.36 in 8.0 mi NW 3.5 mph - N/A   Overcast
7:55 AM 6.1 °F - 1.9 °F 83% 30.38 in 9.0 mi Calm Calm - N/A   Scattered Clouds
8:55 AM 6.1 °F - 3.0 °F 87% 30.40 in 7.0 mi Calm Calm - N/A   Overcast
9:55 AM 12.0 °F - 10.0 °F 92% 30.41 in 8.0 mi Calm Calm - N/A   Overcast
10:55 AM 15.1 °F - 10.0 °F 80% 30.42 in 7.0 mi Calm Calm - N/A   Overcast
11:55 AM 19.9 °F 11.1 °F 6.1 °F 55% 30.41 in 10.0 mi NNE 6.9 mph - N/A   Overcast
12:55 PM 19.9 °F 14.9 °F 6.1 °F 55% 30.41 in 10.0 mi NW 3.5 mph - N/A   Overcast
1:55 PM 19.9 °F 12.1 °F 6.1 °F 55% 30.40 in 10.0 mi West 5.8 mph - N/A   Overcast
2:55 PM 19.0 °F 9.0 °F 5.0 °F 54% 30.40 in 10.0 mi NW 8.1 mph - N/A   Mostly Cloudy
3:55 PM 19.0 °F 11.1 °F 6.1 °F 57% 30.39 in 10.0 mi NW 5.8 mph - N/A   Mostly Cloudy
4:55 PM 18.0 °F 9.8 °F 5.0 °F 57% 30.39 in 10.0 mi WNW 5.8 mph - N/A   Overcast
5:55 PM 14.0 °F 6.5 °F 3.9 °F 64% 30.40 in 10.0 mi NW 4.6 mph - N/A   Clear
6:55 PM 12.0 °F 5.9 °F 3.0 °F 67% 30.41 in 10.0 mi NW 3.5 mph - N/A   Clear
7:55 PM 8.1 °F - 1.0 °F 73% 30.42 in 10.0 mi Calm Calm - N/A   Clear
8:55 PM 10.0 °F 1.8 °F 3.0 °F 73% 30.41 in 10.0 mi NW 4.6 mph - N/A   Clear
9:55 PM 8.1 °F - 1.0 °F 73% 30.40 in 10.0 mi Calm Calm - N/A   Clear
10:55 PM 10.9 °F 2.9 °F 1.0 °F 64% 30.38 in 10.0 mi North 4.6 mph - N/A   Clear
11:55 PM 10.0 °F 3.6 °F -0.0 °F 64% 30.38 in 10.0 mi North 3.5 mph - N/A   Clear